Regional Weather Roundup
Issued by NWS Kansas City/Pleasant Hill, MO

Home | Current Version | Previous Version | Graphics & Text | Print | Product List | Glossary Off
Versions: 1 2 3 4 5 6 7 8 9 10 11 12 13 14 15 16 17 18 19 20 21 22 23 24 25 26 27 28 29 30 31 32 33 34 35 36 37 38 39 40 41 42 43 44 45 46 47 48 49 50

000
ASUS43 KEAX 200711
RWREAX

WEATHER ROUNDUP FOR EASTERN KANSAS AND NORTHWEST MISSOURI
NATIONAL WEATHER SERVICE KANSAS CITY/PLEASANT HILL MO
200 AM CDT SAT SEP 20 2014

KSZ040-057-103>105-MOZ028-029-037-043-200800-
...KANSAS CITY METROPOLITAN AREA...

CITY           SKY/WX    TMP DP  RH WIND       PRES   REMARKS
K.C. INTL      PTCLDY    68  66  93 S12       29.93F
K.C. DOWNTOWN  CLEAR     71  67  87 SW8       29.93F
LEES SUMMIT    CLEAR     68  66  93 S8        29.96S
OLATHE - IXD   CLEAR     66  66 100 S8        29.96S FOG
OLATHE - OJC   CLEAR     68  67  96 S9        29.95S FOG
LAWRENCE       CLEAR     68  65  90 S6        29.94S FOG

$$

MOZ001>008-011>017-020>025-030>033-038>040-044>046-053-054-200800-
...NORTHERN AND CENTRAL MISSOURI...

CITY           SKY/WX    TMP DP  RH WIND       PRES   REMARKS
ST. JOSEPH     CLEAR     67  66  97 S8        29.92R
MOSBY          SUNNY     68  68 100 S6        29.93S
WHITEMAN AFB   CLEAR     65  63  94 SW9       29.96R
CLINTON        CLEAR     64  64 100 CALM      29.97F
SEDALIA        CLEAR     68  63  84 S9        29.97S
WARSAW         NOT AVBL
MARSHALL       CLEAR     68  66  94 S6        29.97R
CHILLICOTHE      N/A     68  65  90 S3        29.95R
MOBERLY        CLEAR     68  61  77 S8        29.97R
KIRKSVILLE     CLEAR     68  62  81 SW10G20   29.94R

$$

MOZ041-047>049-056>058-063>065-088>090-097-200800-
...EASTERN AND SOUTHERN MISSOURI...

CITY           SKY/WX    TMP DP  RH WIND       PRES   REMARKS
ST. LOUIS INTL PTCLDY    68  59  73 S8        29.98F
SPIRIT OF STL  CLEAR     57  55  94 NW3       29.98F FOG
COLUMBIA       CLEAR     62  61  96 S7        29.97F
JEFFERSON CITY CLEAR     63  60  90 E5        29.97F
MEXICO         CLEAR    N/A N/A N/A S6        29.96F
HANNIBAL       CLEAR     63  59  88 S6        29.96S
ROLLA          CLEAR     65  62  90 S9        29.99S FOG
LEBANON        CLEAR     66  63  88 S7        30.01F
OSAGE BEACH    CLEAR     64  61  88 SE6       29.98F
SPRINGFIELD    CLEAR     66  63  90 S8        30.01S
BRANSON        CLEAR     66  64  94 CALM      30.03S
NEVADA         CLEAR     64  64 100 S7        29.99S
JOPLIN         CLEAR     67  66  97 S6        30.00R FOG
WEST PLAINS    CLEAR     61  59  93 CALM      30.05S FOG

$$

IAZ060-094-KSZ022-034>040-054-083-096-NEZ052-066-093-200800-
...KANSAS...SOUTHEAST NEBRASKA AND IOWA...

CITY           SKY/WX    TMP DP  RH WIND       PRES   REMARKS
TOPEKA         PTCLDY    70  68  93 S12       29.93S
MANHATTAN      CLEAR     71  68  90 SW8       29.92S
EMPORIA        CLEAR     68  67  96 S14       29.96S FOG
CHANUTE        CLEAR     67  66  97 S8        29.98S FOG
WICHITA        PTCLDY    71  67  87 S9        29.97S
OMAHA          PTCLDY    74  67  78 S12       29.82R
LINCOLN        CLEAR     74  66  76 SW13      29.85R
FALLS CITY     CLEAR     70  67  90 S12G20    29.87S
LAMONI         PTCLDY    68  66  93 S12       29.89F
DES MOINES     CLOUDY    72  65  78 SW14      29.84R

$$



USA.gov is the U.S. government's official web portal to all federal, state and local government web resources and services.